TimeHST,TemperatureF,Dew PointF,Humidity,Sea Level PressureIn,VisibilityMPH,Wind Direction,Wind SpeedMPH,Gust SpeedMPH,PrecipitationIn,Events,Conditions,WindDirDegrees,DateUTC
12:54 AM,75.0,66.9,76,30.09,10.0,ENE,11.5,18.4,N/A,,Clear,60,2013-09-28 10:54:00
1:54 AM,73.9,68.0,82,30.09,10.0,NE,16.1,24.2,N/A,,Mostly Cloudy,50,2013-09-28 11:54:00
2:54 AM,73.9,66.0,76,30.07,10.0,NE,10.4,-,N/A,,Partly Cloudy,50,2013-09-28 12:54:00
3:54 AM,75.9,66.9,74,30.05,10.0,NE,15.0,-,N/A,,Clear,50,2013-09-28 13:54:00
4:54 AM,75.9,69.1,79,30.06,10.0,NE,12.7,-,N/A,,Clear,40,2013-09-28 14:54:00
5:54 AM,75.9,69.1,79,30.08,10.0,NE,12.7,-,N/A,,Scattered Clouds,40,2013-09-28 15:54:00
6:54 AM,75.0,69.1,82,30.10,10.0,NE,8.1,-,0.00,,Scattered Clouds,50,2013-09-28 16:54:00
7:54 AM,77.0,69.1,76,30.11,10.0,ENE,5.8,-,0.00,,Scattered Clouds,70,2013-09-28 17:54:00
8:54 AM,81.0,68.0,65,30.11,10.0,ENE,15.0,-,0.00,,Scattered Clouds,70,2013-09-28 18:54:00
9:54 AM,79.0,68.0,69,30.12,10.0,NE,17.3,28.8,N/A,,Scattered Clouds,50,2013-09-28 19:54:00
10:54 AM,84.9,66.0,53,30.09,10.0,ENE,17.3,26.5,N/A,,Scattered Clouds,70,2013-09-28 20:54:00
11:54 AM,84.9,66.0,53,30.08,10.0,ENE,19.6,29.9,N/A,,Scattered Clouds,60,2013-09-28 21:54:00
12:54 PM,87.1,64.9,48,30.05,10.0,ENE,21.9,31.1,N/A,,Scattered Clouds,60,2013-09-28 22:54:00
1:54 PM,87.1,62.1,43,30.02,10.0,ENE,19.6,26.5,N/A,,Scattered Clouds,70,2013-09-28 23:54:00
2:54 PM,84.9,66.9,55,30.01,10.0,ENE,23.0,34.5,N/A,,Partly Cloudy,70,2013-09-29 00:54:00
3:54 PM,84.0,64.9,53,30.02,10.0,ENE,21.9,32.2,N/A,,Partly Cloudy,60,2013-09-29 01:54:00
4:54 PM,82.9,68.0,60,30.04,10.0,NE,19.6,23.0,N/A,,Partly Cloudy,50,2013-09-29 02:54:00
5:54 PM,79.0,68.0,69,30.05,10.0,NE,11.5,-,N/A,,Scattered Clouds,50,2013-09-29 03:54:00
6:54 PM,75.9,71.1,85,30.07,10.0,NE,11.5,-,0.01,,Mostly Cloudy,50,2013-09-29 04:54:00
7:54 PM,73.9,69.1,85,30.08,10.0,NE,5.8,-,0.01,,Mostly Cloudy,50,2013-09-29 05:54:00
8:54 PM,75.0,70.0,84,30.09,10.0,NE,8.1,-,N/A,,Partly Cloudy,50,2013-09-29 06:54:00
9:54 PM,75.0,68.0,79,30.10,10.0,NE,5.8,-,N/A,,Clear,50,2013-09-29 07:54:00
10:54 PM,73.9,69.1,85,30.09,10.0,NE,8.1,-,N/A,,Clear,50,2013-09-29 08:54:00
11:54 PM,73.9,68.0,82,30.09,10.0,NE,6.9,-,N/A,,Clear,50,2013-09-29 09:54:00